OXFK1: Arkansas Rvr at Oxford

Data processed at Fri Mar 09 2018 23:46


All information presented herein is the property of the government of the United States of America and may be revised or deleted at any time without prior notice.
Dissemination of this information without the expressed written consent of the Public Affairs Office, Tulsa District U.S. Army Corps of Engineers is strictly prohibited.
These data are gathered electronically and, as presented, have not undergone any form of quality control. These data are not guaranteed to be valid or correct.
Go to home page.
Go to station list.

Upstream stations:

Downstream station:
Previous Day
Next Day
Current Day
    
SHEF ID:       OXFK1     ARKANSAS RIVER AT OXFORD
STATION TYPE:  

                STAGE  RIV-FLOW  BAT-LOAD
                   ft       cfs      volt
              Ccp-Rev   Ccp-Rev   Ccp-Rev
(US/Central)
03/07 00:00      7.86       469     12.65
03/07 01:00      7.86       469      ----
03/07 02:00      7.86       469     12.57
03/07 03:00      7.87       477     12.57
03/07 04:00      7.89       492     12.57
03/07 05:00      7.90       500     12.49
03/07 06:00      7.92       514     12.49
03/07 07:00      7.93       521     12.49
03/07 08:00      7.94       528     12.73
03/07 09:00      7.95       535     14.16
03/07 10:00      7.96       542     14.08
03/07 11:00      7.96       542     14.00
03/07 12:00      7.96       542     14.00
03/07 13:00      7.97       550     13.84
03/07 14:00      7.96       542     13.29
03/07 15:00      7.97       550     13.37
03/07 16:00      7.97       550     13.29
03/07 17:00      7.97       550     13.21
03/07 18:00      7.97       550     13.13
03/07 19:00      7.97       550     12.89
03/07 20:00      7.96       542     12.81
03/07 21:00      7.96       542     12.81
03/07 22:00      7.96       542     12.73
03/07 23:00      7.95       535     12.73